Home > Weather > Rarotonga > Past weeks

Flag for Cook Islands Weather for the Past 2 Weeks in Rarotonga, Cook Islands

Now
77 °F

Broken clouds.


Feels Like: 79 °F
Forecast: 73 / 79 °F
Wind: 10 mph from Southeast

Location: Rarotonga

Current Time: Apr 30, 2016 at 5:01:30 PM

Latest Report: Apr 30, 2016 at 4:00 PM


Visibility: N/A

Pressure: 29.92 "Hg

Humidity: 61%

Dew Point: 63 °F

Location of RarotongaLocation

Historic Weather in Rarotonga — Graph

°F

Rarotonga Temperature Yesterday

Maximum temperature yesterday: 79 °F (at 12:00 PM)
Minimum temperature yesterday: 70 °F (at 4:00 AM)
Average temperature yesterday: 74 °F

High & Low Weather Summary for the Past Weeks

 TemperatureHumidityPressure
High82 °F (Apr 21, 3:00 PM)100% (Apr 20, 3:00 AM)30.04 "Hg (Apr 20, 3:00 AM)
Low68 °F (Apr 20, 3:00 AM)50% (Apr 28, 9:00 PM)29.53 "Hg (Apr 26, 3:00 PM)
Average77 °F75%29.89 "Hg
* Reported Apr 15 4:00 PM — Apr 30 4:00 PM, Rarotonga, Weather by CustomWeather, © 2016

Note: Actual official high and low records may vary slightly from our data, if they occured in-between our weather recording intervals... More about our weather records

Advertising

Rarotonga Weather History for the Previous 24 Hours

Scroll right to see more
 ConditionsComfort  
Time TempWeatherWind HumidityBarometerVisibility
4:00 PM
Sat, Apr 30
77 °FBroken clouds.10 mph61%29.92 "HgN/A
3:00 PM77 °FBroken clouds.7 mph69%29.95 "HgN/A
2:00 PM77 °FBroken clouds.7 mph69%29.95 "HgN/A
1:00 PM79 °FBroken clouds.12 mph61%29.95 "HgN/A
12:00 PM79 °FScattered clouds.10 mph65%29.98 "HgN/A
11:00 AM79 °FPassing clouds.9 mph65%29.98 "HgN/A
10:00 AM79 °FPassing clouds.7 mph61%29.98 "HgN/A
9:00 AM77 °FPassing clouds.13 mph65%29.98 "HgN/A
8:00 AM73 °FPassing clouds.6 mph74%29.98 "HgN/A
7:00 AM72 °FPassing clouds.6 mph78%29.95 "HgN/A
6:00 AM72 °FPassing clouds.7 mph78%29.92 "HgN/A
5:00 AM72 °FPassing clouds.8 mph78%29.92 "HgN/A
3:00 AM73 °FPassing clouds.6 mph74%29.92 "HgN/A
2:00 AM73 °FPassing clouds.6 mph74%29.95 "HgN/A
1:00 AM73 °FPassing clouds.8 mph69%29.95 "HgN/A
12:00 AM73 °FPassing clouds.5 mph74%29.98 "HgN/A
11:00 PM
Fri, Apr 29
73 °FPassing clouds.7 mph74%29.98 "HgN/A
10:00 PM73 °FPassing clouds.10 mph69%29.98 "HgN/A
9:00 PM73 °FPassing clouds.7 mph69%29.98 "HgN/A
8:00 PM73 °FPassing clouds.5 mph69%29.98 "HgN/A
7:00 PM73 °FPassing clouds.10 mph69%29.95 "HgN/A
6:00 PM75 °FScattered clouds.8 mph65%29.95 "HgN/A
Weather by CustomWeather, © 2016

See weather overviewHow to use our weather pages